CZ-6A DEB, 60759

Orbit data source: Space-Track

CZ-6A DEB, 60759 is space debris in LEO originally from a launch on Tue, 06 Aug 2024 UTC launched from the Taiyaun Space Center, China (TSC). Debris objects in space refer to the collection of defunct objects orbiting the Earth. Examples of debris include non-operational satellites, rocket bodies, and fragments generated from explosions, collisions, or faulty payload assembly.

Loading next visibility...
Identifier
60759, 2024-140EJ
Orbit
LEO
Country
Flag of CNCN / PRC
Related business
Manufacturer
SAST
Mission
Spacecraft
Bus & Motor
Unknown
Mass
Unknown
Launch date (UTC)
2024-08-06 (2 years ago)
Launch vehicle
Unknown
Launch site
Taiyaun Space Center, China (TSC)
Object type
Payload
Rocket body
Debris
Shape & HBR
Unknown shape, 0.2 m
Radar Cross Section
Medium (>0.1 m² and <1 m²)

Expand to show TLE details & history
Last TLE update: 17 hours ago

TLE from 17 hours ago
0 CZ-6A DEB
1 60759U 24140EJ  26171.28381029  .00000944  00000-0  43011-3 0  9997
2 60759  89.0067 274.9994 0053701 171.7748 188.4336 14.20140448 96471
Epoch: 2026-06-20T06:48Z
TLE epoch observation values (Epoch: 2026-06-20T06:48:41.209Z)
Latitude
0.00004°
Longitude
-95.67295°
Altitude
866.207 km
Speed
7.4 km/s
True Right ascension
18h 19m 59s
True Declination
0° 00' 00"
Sunlit
Object was in full shadow at epoch
Visualization orbit readout
Latitude
Unknown
Longitude
Unknown
Altitude
Unknown
Speed
Unknown
Apparent Right ascension
Unknown
Apparent Declination
Unknown
Sunlit
N/A
Visualization observer readout
Local Sidereal Time
10:19:02
Azimuth
Unknown
Elevation
Unknown
Doppler factor
Unknown
Orbital elements
Apogee altitude
860.493 km
Perigee altitude
783.164 km
Semi-major axis
7,199.966 km
Eccentricity
0.00537
Inclination
89.0067°
RAAN
274.9994°
Arg. of periapsis
171.7748°
True anomaly
188.34394°
Mean anomaly
188.4336°
Eccentric anomaly
188.38871°
Mean motion
3.55261 °/min
Orbital period
101.33 mins
BSTAR
0.00043011
Loading maneuver chart data...
Computing Atmospheric mass density...
Loading historical data...
Loading historical data...
Loading historical data...
Loading historical data...
Loading historical data...
Loading historical data...
Loading historical data...

Documentation

Showing up to 5 results
|